Hourly Weather Bolshie Medvedki

Today, 23 July, Friday

Time Temperature Precipitation Wind Pressure Humidity
00:00 +13°C° 0 mm 3 mps 738 mmHg 60%
01:00 +12°C° 0 mm 3 mps 738 mmHg 62%
02:00 +12°C° 0 mm 3 mps 738 mmHg 64%
03:00 +12°C° 0 mm 2 mps 738 mmHg 66%
04:00 +13°C° 0 mm 2 mps 738 mmHg 67%
05:00 +13°C° 0 mm 2 mps 738 mmHg 68%
06:00 +13°C° 0 mm 2 mps 738 mmHg 69%
07:00 +15°C° 0 mm 2 mps 738 mmHg 62%
08:00 +17°C° 0 mm 3 mps 738 mmHg 55%
09:00 +19°C° 0 mm 3 mps 738 mmHg 52%
10:00 +20°C° 0 mm 4 mps 738 mmHg 49%
11:00 +21°C° 0 mm 4 mps 738 mmHg 47%
12:00 +22°C° 0 mm 5 mps 738 mmHg 44%
13:00 +23°C° 0 mm 5 mps 737 mmHg 44%
14:00 +25°C° 0 mm 5 mps 737 mmHg 43%
15:00 +25°C° 0 mm 5 mps 737 mmHg 42%
16:00 +23°C° 0 mm 5 mps 737 mmHg 45%
17:00 +23°C° 0 mm 4 mps 737 mmHg 49%
18:00 +22°C° 0 mm 4 mps 737 mmHg 52%
19:00 +21°C° 0 mm 3 mps 737 mmHg 57%
20:00 +19°C° 0 mm 3 mps 737 mmHg 61%
21:00 +18°C° 0 mm 3 mps 737 mmHg 65%
22:00 +18°C° 0 mm 3 mps 737 mmHg 66%
23:00 +18°C° 0 mm 2 mps 738 mmHg 66%

Tomorrow, 24 July, Saturday

Time Temperature Precipitation Wind Pressure Humidity
00:00 +17°C° 0 mm 2 mps 738 mmHg 67%
01:00 +17°C° 0 mm 2 mps 738 mmHg 71%
02:00 +16°C° 0 mm 2 mps 738 mmHg 74%
03:00 +16°C° 0 mm 2 mps 738 mmHg 77%
04:00 +15°C° 0 mm 2 mps 739 mmHg 78%
05:00 +15°C° 0 mm 2 mps 739 mmHg 79%
06:00 +15°C° 0 mm 2 mps 739 mmHg 80%
07:00 +17°C° 0 mm 3 mps 739 mmHg 73%
08:00 +18°C° 0 mm 3 mps 739 mmHg 65%
09:00 +20°C° 0 mm 3 mps 740 mmHg 57%
10:00 +21°C° 0 mm 3 mps 740 mmHg 52%
11:00 +21°C° 0 mm 3 mps 740 mmHg 48%
12:00 +22°C° 0 mm 3 mps 740 mmHg 43%
13:00 +22°C° 0 mm 4 mps 740 mmHg 44%
14:00 +21°C° 0 mm 4 mps 741 mmHg 46%
15:00 +21°C° 0 mm 4 mps 741 mmHg 48%
16:00 +21°C° 0 mm 4 mps 741 mmHg 47%
17:00 +21°C° 0 mm 3 mps 742 mmHg 47%
18:00 +21°C° 0 mm 3 mps 742 mmHg 47%
19:00 +19°C° 0 mm 3 mps 742 mmHg 50%
20:00 +18°C° 0 mm 2 mps 743 mmHg 54%
21:00 +16°C° 0 mm 1 mps 743 mmHg 57%
22:00 +16°C° 0 mm 1 mps 743 mmHg 58%
23:00 +15°C° 0 mm 1 mps 744 mmHg 58%

Day after tomorrow, 25 July, Sunday

Time Temperature Precipitation Wind Pressure Humidity
00:00 +15°C° 0 mm 1 mps 744 mmHg 59%
01:00 +15°C° 0 mm 1 mps 744 mmHg 59%
02:00 +15°C° 0 mm 1 mps 744 mmHg 60%
03:00 +14°C° 0 mm 1 mps 744 mmHg 60%
04:00 +15°C° 0 mm 1 mps 745 mmHg 61%
05:00 +15°C° 0 mm 1 mps 745 mmHg 61%
06:00 +15°C° 0 mm 1 mps 745 mmHg 62%
07:00 +16°C° 0 mm 1 mps 746 mmHg 58%
08:00 +16°C° 0 mm 0 mps 746 mmHg 55%
09:00 +18°C° 0 mm 0 mps 746 mmHg 51%
10:00 +21°C° 0 mm 1 mps 746 mmHg 48%
11:00 +22°C° 0 mm 1 mps 746 mmHg 44%
12:00 +23°C° 0 mm 2 mps 747 mmHg 40%
13:00 +24°C° 0 mm 2 mps 747 mmHg 38%
14:00 +24°C° 0 mm 2 mps 747 mmHg 37%
15:00 +24°C° 0 mm 3 mps 746 mmHg 35%
16:00 +24°C° 0 mm 3 mps 747 mmHg 38%
17:00 +24°C° 0 mm 2 mps 747 mmHg 42%
18:00 +23°C° 0 mm 2 mps 747 mmHg 45%
19:00 +21°C° 0 mm 2 mps 747 mmHg 46%
20:00 +20°C° 0 mm 2 mps 747 mmHg 48%
21:00 +20°C° 0 mm 1 mps 747 mmHg 50%
22:00 +19°C° 0 mm 1 mps 747 mmHg 52%
23:00 +18°C° 0 mm 1 mps 748 mmHg 54%

26 July, Monday

Time Temperature Precipitation Wind Pressure Humidity
00:00 +18°C° 0 mm 1 mps 748 mmHg 55%
01:00 +16°C° 0 mm 1 mps 748 mmHg 56%
02:00 +16°C° 0 mm 1 mps 748 mmHg 57%
03:00 +15°C° 0 mm 1 mps 748 mmHg 59%
04:00 +15°C° 0 mm 0 mps 748 mmHg 59%
05:00 +15°C° 0 mm 0 mps 748 mmHg 59%
06:00 +16°C° 0 mm 0 mps 748 mmHg 60%
07:00 +17°C° 0 mm 0 mps 749 mmHg 54%
08:00 +21°C° 0 mm 1 mps 749 mmHg 49%
09:00 +23°C° 0 mm 1 mps 749 mmHg 43%
10:00 +24°C° 0 mm 1 mps 749 mmHg 41%
11:00 +24°C° 0 mm 1 mps 749 mmHg 38%
12:00 +25°C° 0 mm 1 mps 749 mmHg 35%
13:00 +26°C° 0 mm 1 mps 749 mmHg 34%
14:00 +26°C° 0 mm 1 mps 749 mmHg 34%
15:00 +27°C° 0 mm 1 mps 749 mmHg 33%
16:00 +26°C° 0 mm 1 mps 748 mmHg 37%
17:00 +25°C° 0 mm 2 mps 748 mmHg 41%
18:00 +25°C° 0 mm 2 mps 748 mmHg 46%
19:00 +23°C° 0 mm 2 mps 748 mmHg 48%
20:00 +22°C° 0 mm 1 mps 748 mmHg 50%
21:00 +21°C° 0 mm 1 mps 748 mmHg 52%
22:00 +20°C° 0 mm 1 mps 748 mmHg 53%
23:00 +20°C° 0 mm 1 mps 748 mmHg 54%

27 July, Tuesday

Time Temperature Precipitation Wind Pressure Humidity
00:00 +19°C° 0 mm 1 mps 749 mmHg 56%
01:00 +19°C° 0 mm 1 mps 748 mmHg 57%
02:00 +18°C° 0 mm 1 mps 748 mmHg 59%
03:00 +18°C° 0 mm 1 mps 748 mmHg 61%
04:00 +18°C° 0 mm 1 mps 748 mmHg 62%
05:00 +18°C° 0 mm 1 mps 749 mmHg 62%
06:00 +18°C° 0 mm 1 mps 749 mmHg 63%
07:00 +20°C° 0 mm 1 mps 749 mmHg 57%
08:00 +22°C° 0 mm 1 mps 749 mmHg 52%
09:00 +24°C° 0 mm 2 mps 749 mmHg 46%
10:00 +25°C° 0 mm 2 mps 749 mmHg 44%
11:00 +26°C° 0 mm 2 mps 749 mmHg 41%
12:00 +27°C° 0 mm 2 mps 749 mmHg 39%
13:00 +27°C° 0 mm 2 mps 748 mmHg 38%
14:00 +27°C° 0 mm 2 mps 748 mmHg 37%
15:00 +28°C° 0 mm 2 mps 748 mmHg 36%
16:00 +27°C° 0 mm 2 mps 748 mmHg 38%
17:00 +27°C° 0 mm 2 mps 747 mmHg 41%
18:00 +26°C° 0 mm 2 mps 747 mmHg 43%
19:00 +25°C° 0 mm 2 mps 747 mmHg 46%
20:00 +23°C° 0 mm 1 mps 747 mmHg 49%
21:00 +22°C° 0 mm 1 mps 747 mmHg 52%
22:00 +21°C° 0 mm 1 mps 747 mmHg 53%
23:00 +20°C° 0 mm 1 mps 747 mmHg 55%

28 July, Wednesday

Time Temperature Precipitation Wind Pressure Humidity
00:00 +20°C° 0 mm 1 mps 747 mmHg 57%
01:00 +19°C° 0 mm 1 mps 747 mmHg 58%
02:00 +19°C° 0 mm 1 mps 747 mmHg 58%
03:00 +19°C° 0 mm 1 mps 746 mmHg 59%
04:00 +19°C° 0 mm 1 mps 746 mmHg 60%
05:00 +19°C° 0 mm 1 mps 746 mmHg 60%
06:00 +19°C° 0 mm 1 mps 746 mmHg 61%
07:00 +21°C° 0 mm 1 mps 746 mmHg 56%
08:00 +23°C° 0 mm 1 mps 746 mmHg 50%
09:00 +26°C° 0 mm 2 mps 746 mmHg 44%
10:00 +27°C° 0 mm 2 mps 746 mmHg 40%
11:00 +28°C° 0 mm 3 mps 745 mmHg 37%
12:00 +29°C° 0 mm 3 mps 745 mmHg 33%
13:00 +29°C° 0 mm 3 mps 745 mmHg 32%
14:00 +30°C° 0 mm 3 mps 744 mmHg 31%
15:00 +30°C° 0 mm 4 mps 744 mmHg 30%
16:00 +29°C° 0 mm 4 mps 744 mmHg 34%
17:00 +29°C° 0 mm 4 mps 743 mmHg 38%
18:00 +28°C° 0 mm 5 mps 743 mmHg 43%
19:00 +26°C° 0 mm 4 mps 743 mmHg 51%
20:00 +22°C° 0 mm 3 mps 742 mmHg 59%
21:00 +20°C° 0 mm 3 mps 742 mmHg 67%
22:00 +20°C° 0.1 mm 3 mps 742 mmHg 71%
23:00 +20°C° 0.1 mm 3 mps 741 mmHg 76%
Show more

We Need Your Consent

Meteoprog and our Service Providers may store and access personal data such as cookies, device identifiers or other similar technologies on your device and process such data to personalise content and ads, as well as provide social media features and to analyse the traffic.

  • Store and/or access information on your device

    Cookies, device identifiers or other information can be stored or accessed on your device for the purposes indicated above.

  • Personalised ads and content, ad and content measurement, audience insights, and products development

    Ads and content can be personalised based on a profile. More data can be added to better personalise ads and content. Ad and content performance can be measured. Insights about the audience who saw the ads and content can be derived. Such data can be used to develop or improve user’s experience, systems and software.

By clicking ‘I Agree’ you will allow the use of indicated cookies, device identifiers, web beacons or other similar technologies. Your settings can be changed in the browser on your device.

For certain purposes, legitimate interests may be relied on, rather than consent. You can read more about this in our Privacy and Cookie Policy.